Weather Roundup
Issued by NWS Chicago, IL

Home | Current Version | Previous Version | Graphics & Text | Print | Product List | Glossary On
Versions: 1 2 3 4 5 6 7 8 9 10 11 12 13 14 15 16 17 18 19 20 21 22 23 24 25 26 27 28 29 30 31 32 33 34 35 36 37 38 39 40 41 42 43 44 45 46 47 48 49 50
000
NZUS59 KLOT 251908
HRRLOT

CHICAGO AREA WEATHER ROUNDUP
NATIONAL WEATHER SERVICE CHICAGO/ROMEOVILLE IL
200 PM CDT WED MAY 25 2016

NOTE: "FAIR" INDICATES FEW OR NO CLOUDS BELOW 12,000 FEET WITH NO
SIGNIFICANT WEATHER AND/OR OBSTRUCTIONS TO VISIBILITY.

* THESE STATIONS ARE NOT UNDER NWS QUALITY CONTROL. THEY ALSO MAY NOT
  REPORT WEATHER SUCH AS PRECIPITATION OR FOG.

ILZ005-006-012>014-019>023-252000-
NORTHEAST ILLINOIS

CITY           SKY/WX    TMP DP  RH WIND       PRES   REMARKS
OHARE          PTSUNNY   84  62  47 SE9       29.94F HX  85
MIDWAY         PTSUNNY   86  59  39 S13G21    29.94F HX  85
AURORA         CLOUDY    85  63  47 MISG      29.94F HX  86
LANSING*       SUNNY     84  59  41 S13       29.97F HX  84
JOLIET*        MOSUNNY   86  63  45 SE9G16    29.94F HX  87
WAUKEGAN       CLOUDY    76  63  64 SE13      29.95F
DUPAGE AIRPORT PTSUNNY   84  62  47 S10       29.94F HX  85
WHEELING       PTSUNNY   83  60  45 S14       29.95F HX  83
KANKAKEE*      MOSUNNY  N/A N/A N/A S9        29.96F
MORRIS*        MOSUNNY   87  56  34 SE14      29.92F HX  86
LEWIS AIRPORT* MOSUNNY   86  56  35 S13G21    29.94F HX  85
$$

WIZ051-052-058>065-066-070>072-252000-
SOUTHEAST WISCONSIN

CITY           SKY/WX    TMP DP  RH WIND       PRES   REMARKS
MILWAUKEE      PTSUNNY   60  52  74 NE10      29.98F
KENOSHA*       CLOUDY    72  60  66 E13       29.96F
RACINE*        CLOUDY    63  52  67 NE9       29.98F
BURLINGTON     PTSUNNY   85  56  37 SE7       29.94S HX  83
WAUKESHA       SUNNY     75  61  60 E12       29.97F
WEST BEND      SUNNY     73  59  60 E9        29.97F
$$

INZ001>003-010>013-019-020-252000-
NORTHWEST INDIANA

CITY           SKY/WX    TMP DP  RH WIND       PRES   REMARKS
GARY*          PTSUNNY   86  68  54 S12       29.97F HX  89
MICHIGAN CITY* NOT AVBL
RENSSELAER*    NOT AVBL
VALPARAISO     SUNNY     86  60  41 SE10      29.98F HX  86
$$

LMZ740>746-252000-
SOUTHERN LAKE MICHIGAN

STATION/POSITION TIME  SKY/WX   TEMP WIND        PRES    VSBY
                                AIR  DIR/SP/G
                 (UTC)          (F)  (DEG/KT/KT) (MB)    (MI)
HARRISON CRIB    1800            76  110/ 13/ 14   N/A
BURNHAM HARBOR   1900            67   80/  9/ 11   N/A
CALUMET HARBOR   1800            75   70/  6/ 11 1014.5F
BURNS HARBOR     1800            82  190/  8/ 14 1015.6F
MICHIGAN CITY    1800            80  200/  6/  8   N/A
$$

ABBREVIATIONS USED IN REMARKS
   TC - TEMPERATURE IN CELSIUS
  WCI - WIND CHILL INDEX
   HX - HEAT INDEX
  VSB - VISIBILITY
$$




USA.gov is the U.S. government's official web portal to all federal, state and local government web resources and services.